GEO-KOMPSAT-2B

Last updated on Fri Sep 19 2025 00:02:51 GMT+0000 (Coordinated Universal Time)

1 45246U 20013B 25261.26225409 -.00000364 00000+0 00000+0 0 9995 2 45246 0.0490 308.5055 0001712 284.0741 347.5199 1.00271019 20550
UTC large
Height (km)
Speed (km/s)
/
Latitude / Longitude
Inclination (degrees)
Orbital Period (minutes)
Azimuth
Elevation
Range (km)
Doppler Factor

Next 0 passes for location: London (51.5072 / 0.1276)

Sorry there are no passes over London.